Home > Weather > Sarnia > Past weeks

Flag for Canada Weather for the Past 2 Weeks in Sarnia, Ontario, Canada

Now
54 °F

Sunny.


Feels Like: 52 °F
Forecast: 40 / 63 °F
Wind: 6 mph from North

Location: Sarnia Airport

Current Time: May 6, 2016 at 9:05:10 PM

Latest Report: May 6, 2016 at 8:00 PM


Visibility: 9 mi

Pressure: 29.84 "Hg

Humidity: 67%

Dew Point: 43 °F

Location of SarniaLocation

Historic Weather in Sarnia — Graph

°F

Sarnia Temperature Yesterday

Maximum temperature yesterday: 54 °F (at 2:00 PM)
Minimum temperature yesterday: 43 °F (at 1:00 AM)
Average temperature yesterday: 47 °F

High & Low Weather Summary for the Past Weeks

 TemperatureHumidityPressure
High68 °F (Apr 25, 2:00 PM)100% (Apr 22, 3:00 AM)30.24 "Hg (Apr 22, 3:00 AM)
Low32 °F (Apr 24, 5:00 AM)29% (Apr 24, 2:00 PM)29.60 "Hg (May 4, 2:00 PM)
Average46 °F76%29.97 "Hg
* Reported Apr 21 8:00 PM — May 6 8:00 PM, Sarnia, Weather by CustomWeather, © 2016

Note: Actual official high and low records may vary slightly from our data, if they occured in-between our weather recording intervals... More about our weather records

Advertising

Sarnia Weather History for the Previous 24 Hours

Scroll right to see more
 ConditionsComfort  
Time TempWeatherWind HumidityBarometerVisibility
8:00 PM
Fri, May 6
54 °FSunny.6 mph67%29.84 "Hg9 mi
7:00 PM59 °FSunny.6 mph59%29.84 "Hg9 mi
6:00 PM61 °FSunny.7 mph52%29.85 "Hg9 mi
5:00 PM63 °FSunny.8 mph49%29.86 "Hg9 mi
4:00 PM61 °FSunny.8 mph48%29.88 "Hg9 mi
3:00 PM59 °FSunny.7 mph51%29.91 "Hg9 mi
2:00 PM59 °FSunny.8 mph51%29.93 "Hg9 mi
1:00 PM55 °FSunny.10 mph59%29.96 "Hg9 mi
12:00 PM55 °FSunny.10 mph55%29.97 "Hg9 mi
11:00 AM55 °FSunny.9 mph51%29.98 "Hg9 mi
10:00 AM52 °FSunny.9 mph67%29.98 "Hg9 mi
9:00 AM50 °FSunny.8 mph76%29.96 "Hg9 mi
8:00 AM48 °FSunny.12 mph82%29.95 "Hg9 mi
7:00 AM46 °FClear.12 mph82%29.93 "Hg9 mi
6:00 AM45 °FClear.10 mph87%29.92 "Hg9 mi
5:00 AM45 °FClear.10 mph87%29.92 "Hg9 mi
4:00 AM43 °FClear.7 mph87%29.91 "Hg9 mi
3:00 AM43 °FClear.6 mph87%29.92 "Hg9 mi
2:00 AM41 °FClear.5 mph93%29.92 "Hg9 mi
1:00 AM43 °FClear.6 mph87%29.91 "Hg9 mi
12:00 AM43 °FClear.2 mph93%29.91 "Hg9 mi
11:00 PM
Thu, May 5
43 °FClear.5 mph87%29.91 "Hg9 mi
10:00 PM45 °FClear.6 mph87%29.90 "Hg9 mi
9:00 PM46 °FSunny.13 mph82%29.89 "Hg9 mi
Weather by CustomWeather, © 2016

See weather overviewHow to use our weather pages